[[{"header":{"parameterUnit":"m.s-1","parameterCategory":1,"la1":30.2991,"la2":30.254,"lo1":-89.0895,"lo2":-89.0444,"dy":0.0017,"dx":0.0017,"nx":28,"ny":28,"refTime":"2023-11-04T21:00:00:Z","depth":0,"parameterNumber":2,"parameterNumberName":"U-component_of_WINDS"},"data":[0,0,0,0,0,0,0,0,0,0,0,0,0,0,0,0,0,0,0,0,0,0,0,0,0,0,0,0,0,0,0,0,0,0,0,0,0,0,0,0,0,0,0,0,0,0,0,0,0,0,0,0,0,0,0,0,0,0,0.9366,0.9367,0,0.9438,0.9438,0.9439,0.9444,0.9443,0.9442,0.9442,0.9516,0.9518,0.9521,0,0,0,0,0,0,0,0,0,0,0,0,0,0.9234,0.9237,0.9366,0.9367,0.9368,0.9437,0.9438,0.9439,0.9444,0.9443,0.9442,0.9441,0.9515,0.9518,0.9521,0,0,0,0,0,0,0,0,0,0,0,0,0,0.9297,0.9237,0.9366,0.9378,0.938,0.9437,0.9438,0.944,0.9444,0.9443,0.9442,0.9441,0.9514,0.9518,0.9522,0.9571,0,0,0.9534,0.9536,0,0,0,0,0,0,0,0,0.9294,0.9302,0.9376,0.9378,0.938,0.9431,0.9419,0.9484,0.9445,0.942,0.9441,0.944,0.9488,0.9494,0.9511,0.9574,0.9578,0.9534,0.9537,0.9539,0.954,0,0,0,0,0,0,0,0.9289,0.9299,0.9394,0.9377,0.9379,0.9381,0.9388,0.9431,0.946,0.9422,0.9423,0.9431,0.9489,0.9507,0.9512,0.9579,0.9534,0.9538,0.9541,0.9542,0.9687,0.9689,0,0,0,0,0,0,0.9282,0.9295,0.9392,0.9396,0.9333,0.9384,0.9393,0.9415,0.946,0.9465,0.9432,0.9431,0.95,0.9508,0.9515,0.9576,0.9539,0.9542,0.9545,0.9686,0.9687,0.9689,0,0,0,0,0,0,0.9279,0.9291,0.9389,0.9346,0.9359,0.9388,0.9413,0.9418,0.9435,0.9467,0.9472,0.9444,0.95,0.9509,0.9557,0.9578,0.9544,0.9548,0.9684,0.9686,0.9688,0.9697,0,0,0,0,0,0,0.9276,0.929,0.9309,0.9346,0.9361,0.943,0.9415,0.942,0.9442,0.9441,0.948,0.9485,0.9499,0.9551,0.9561,0.9583,0.9551,0.9682,0.9685,0.9688,0.9695,0.9699,0.9703,0,0,0,0,0,0.9271,0.9308,0.9309,0.9321,0.9385,0.9431,0.9439,0.9454,0.9443,0.9463,0.9484,0.9484,0.9574,0.9556,0.9567,0.9591,0.9681,0.9684,0.9687,0.9693,0.9698,0.9703,0,0,0,0,0,0,0.9272,0.9313,0.9315,0.9366,0.9395,0.9431,0.9456,0.9459,0.9492,0.949,0.9508,0.9517,0.9564,0.9582,0.9561,0.9641,0.9627,0.9632,0.9627,0.9632,0.9636,0.963,0.9555,0,0,0,0,0,0.9278,0.9312,0.9346,0.9388,0.9402,0.9427,0.9447,0.9457,0.9487,0.95,0.9524,0.9554,0.9589,0.9612,0.9646,0.9698,0.9707,0.972,0.9724,0.9727,0.9731,0.976,0.9767,0.9699,0.9699,0.9699,0,0,0.9291,0.9318,0.9338,0.9389,0.9412,0.9447,0.9437,0.9474,0.95,0.9505,0.9552,0.9571,0.9606,0.9656,0.9679,0.9673,0.9752,0.9731,0.9733,0.9736,0.9764,0.9771,0.9776,0.9702,0.9701,0.9701,0,0,0.9333,0.9356,0.9393,0.9417,0.9453,0.9469,0.9478,0.9515,0.9527,0.9574,0.9579,0.9611,0.9671,0.9696,0.9716,0.9767,0.9769,0.9778,0.9798,0.9826,0.9832,0.9836,0.9854,0.9861,0.9783,0.9783,0.9783,0,0.9344,0.9396,0.9412,0.9449,0.9471,0.9478,0.9516,0.9538,0.9583,0.9599,0.9591,0.9667,0.9691,0.9747,0.9759,0.9776,0.9786,0.9773,0.9829,0.9834,0.9839,0.9857,0.9863,0.9784,0.9783,0.9783,0.9783,0,0.9409,0.9445,0.9471,0.9514,0.9539,0.9576,0.9598,0.9622,0.9629,0.9646,0.9694,0.9723,0.9764,0.9778,0.9785,0.9835,0.983,0.9826,0.9811,0.9846,0.9863,0.987,0.9785,0.9784,0.9784,0.9784,0,0,0.9452,0.9504,0.9513,0.9533,0.9573,0.9601,0.9639,0.9679,0.9698,0.973,0.9762,0.9813,0.9809,0.9833,0.9843,0.9868,0.9907,0.9861,0.9862,0.9868,0.9963,0.9965,0.9973,0.9908,0.991,0.9911,0.996,0,0.9497,0.9564,0.958,0.9637,0.9671,0.9678,0.9711,0.974,0.9757,0.9789,0.9808,0.9844,0.9836,0.985,0.9875,0.9897,0.9926,0.9893,0.9938,0.994,0.9928,0.9981,0.9984,1.0029,0.9967,0.9968,0.9968,0,0.9559,0.9591,0.9652,0.9688,0.9703,0.9732,0.9769,0.9799,0.9832,0.9843,0.9869,0.9877,0.9918,0.9902,0.9957,0.9935,0.9954,0.9968,0.997,0.9974,0.9955,0.9986,1.0043,1.005,0.9979,0.9978,0.9977,0,0.9583,0.9642,0.9686,0.9703,0.9746,0.9767,0.9786,0.9818,0.984,0.9873,0.9888,0.9926,0.9946,0.9975,0.9993,0.998,1.0047,1.0033,1.0057,1.0057,1.007,1.0069,1.013,1.0084,1.0084,1.0084,1.0084,0,0.9631,0.9668,0.9698,0.9725,0.9766,0.9785,0.9825,0.9845,0.9873,0.9904,0.9913,0.9942,0.9965,0.9997,1.0012,1.0056,1.0065,1.0075,1.0078,1.0074,1.0072,1.0086,1.0083,1.0086,1.0085,1.0085,1.0085,0,0.9665,0.9687,0.9735,0.9772,0.9783,0.9812,0.9844,0.9871,0.9889,0.9928,0.9938,0.9966,1.0005,1.0026,1.0075,1.0085,1.0133,1.0136,1.0122,1.0123,1.0146,1.0143,1.0218,1.0228,1.0176,1.0176,1.0177,0,0.9694,0.9722,0.9763,0.9785,0.9804,0.9838,0.9862,0.9881,0.9905,0.9945,0.9967,1.0006,1.0038,1.01,1.0125,1.0162,1.0165,1.0188,1.017,1.0165,1.0164,1.0162,1.0165,1.0191,1.0191,1.0192,1.0192,0,0.9743,0.9752,0.9785,0.9822,0.985,0.988,0.991,0.9927,0.9951,0.9978,1.0017,1.0042,1.0092,1.0131,1.017,1.019,1.0195,1.0198,1.0205,1.02,1.0191,1.0196,1.013,1.0196,1.0195,1.0195,1.0195,1.0195,0.9775,0.98,0.9833,0.987,0.9894,0.9922,0.9949,0.997,1.0004,1.0045,1.0055,1.0097,1.013,1.0183,1.0204,1.0238,1.0233,1.0244,1.0247,1.0249,1.0249,1.0187,1.0245,1.0245,1.0245,1.0245,1.0245,0,0.9823,0.9845,0.9879,0.992,0.9949,0.9952,0.9985,1.0009,1.0045,1.0075,1.0107,1.0153,1.0191,1.0219,1.0258,1.0279,1.0282,1.0288,1.0286,1.0291,1.0251,1.0241,1.0285,1.0285,1.0285,1.0285,1.0285,1.0285,0.9852,0.9895,0.9909,0.9965,0.9986,1.0027,1.0046,1.0072,1.0096,1.0146,1.0178,1.0196,1.0226,1.0267,1.0302,1.0309,1.0323,1.0328,1.0336,1.0298,1.0294,1.029,1.028,1.0331,1.0331,1.0373,1.0373,1.0373]},{"header":{"parameterUnit":"m.s-1","parameterCategory":1,"la1":30.2991,"la2":30.254,"lo1":-89.0895,"lo2":-89.0444,"dy":0.0017,"dx":0.0017,"nx":28,"ny":28,"refTime":"2023-11-04T21:00:00:Z","depth":0,"parameterNumber":3,"parameterNumberName":"V-component_of_WINDS"},"data":[0,0,0,0,0,0,0,0,0,0,0,0,0,0,0,0,0,0,0,0,0,0,0,0,0,0,0,0,0,0,0,0,0,0,0,0,0,0,0,0,0,0,0,0,0,0,0,0,0,0,0,0,0,0,0,0,0,0,-0.1151,-0.1153,0,-0.1275,-0.1277,-0.1278,-0.1319,-0.1318,-0.1318,-0.1317,-0.1447,-0.1451,-0.1455,0,0,0,0,0,0,0,0,0,0,0,0,0,-0.0953,-0.0956,-0.1151,-0.1153,-0.1154,-0.1275,-0.1277,-0.1278,-0.1319,-0.1318,-0.1318,-0.1317,-0.1446,-0.145,-0.1455,0,0,0,0,0,0,0,0,0,0,0,0,0,-0.1054,-0.0957,-0.1151,-0.1189,-0.1194,-0.1275,-0.1277,-0.1279,-0.1319,-0.1318,-0.1318,-0.1317,-0.1444,-0.145,-0.1456,-0.1509,0,0,-0.1474,-0.1477,0,0,0,0,0,0,0,0,-0.1048,-0.1061,-0.1182,-0.1187,-0.1192,-0.1281,-0.1254,-0.1356,-0.1319,-0.1272,-0.1317,-0.1316,-0.1393,-0.1403,-0.1428,-0.1515,-0.152,-0.1474,-0.1478,-0.1481,-0.1482,0,0,0,0,0,0,0,-0.1041,-0.1056,-0.12,-0.1184,-0.119,-0.1201,-0.1215,-0.1274,-0.1335,-0.1276,-0.1279,-0.1293,-0.1395,-0.1422,-0.1431,-0.1522,-0.1474,-0.148,-0.1483,-0.1486,-0.166,-0.1661,0,0,0,0,0,0,-0.1027,-0.105,-0.1196,-0.1204,-0.1117,-0.1205,-0.122,-0.1253,-0.1335,-0.1346,-0.1294,-0.1294,-0.1412,-0.1424,-0.1436,-0.1504,-0.1481,-0.1486,-0.149,-0.1659,-0.166,-0.1661,0,0,0,0,0,0,-0.1023,-0.104,-0.1191,-0.1128,-0.1148,-0.1209,-0.1246,-0.1256,-0.1283,-0.1348,-0.136,-0.1309,-0.1412,-0.1428,-0.149,-0.1509,-0.1489,-0.1494,-0.1657,-0.1659,-0.166,-0.1639,0,0,0,0,0,0,-0.1017,-0.1038,-0.1058,-0.1128,-0.1151,-0.1243,-0.1247,-0.1259,-0.1293,-0.1295,-0.1366,-0.1377,-0.1413,-0.1481,-0.1496,-0.1516,-0.1499,-0.1656,-0.1658,-0.166,-0.1638,-0.1639,-0.164,0,0,0,0,0,-0.101,-0.1047,-0.1059,-0.1076,-0.1177,-0.1244,-0.1257,-0.1296,-0.1294,-0.1315,-0.1357,-0.1375,-0.1504,-0.1487,-0.1504,-0.1527,-0.1655,-0.1657,-0.166,-0.1638,-0.1639,-0.164,0,0,0,0,0,0,-0.0979,-0.1057,-0.1071,-0.1132,-0.1181,-0.125,-0.1278,-0.1297,-0.1348,-0.1348,-0.1396,-0.1411,-0.1471,-0.1505,-0.1485,-0.1583,-0.1581,-0.1586,-0.1558,-0.156,-0.1561,-0.1552,-0.1504,0,0,0,0,0,-0.0979,-0.1025,-0.1092,-0.1139,-0.1163,-0.1216,-0.1247,-0.1273,-0.1325,-0.1347,-0.1393,-0.1444,-0.1497,-0.153,-0.1582,-0.1643,-0.166,-0.1667,-0.1668,-0.1669,-0.1674,-0.171,-0.1714,-0.1669,-0.1669,-0.1669,0,0,-0.098,-0.1029,-0.1055,-0.1134,-0.1175,-0.1223,-0.1233,-0.1283,-0.132,-0.1355,-0.1416,-0.1452,-0.1513,-0.1575,-0.1605,-0.1606,-0.169,-0.1672,-0.1672,-0.1677,-0.1712,-0.1717,-0.172,-0.167,-0.167,-0.167,0,0,-0.1006,-0.1047,-0.1092,-0.1132,-0.1194,-0.1229,-0.124,-0.1307,-0.1332,-0.1394,-0.1422,-0.1466,-0.1555,-0.1597,-0.163,-0.1673,-0.1691,-0.1688,-0.1695,-0.1729,-0.1732,-0.1736,-0.1752,-0.1757,-0.1693,-0.1693,-0.1693,0,-0.1,-0.1072,-0.1113,-0.1161,-0.1196,-0.1229,-0.1275,-0.1312,-0.1388,-0.1411,-0.1411,-0.1523,-0.1567,-0.1639,-0.165,-0.1675,-0.169,-0.168,-0.1729,-0.1732,-0.1736,-0.1752,-0.1757,-0.1692,-0.1692,-0.1692,-0.1692,0,-0.1062,-0.1111,-0.114,-0.1211,-0.1249,-0.1296,-0.1345,-0.1378,-0.1401,-0.1437,-0.1501,-0.1554,-0.1617,-0.1636,-0.1659,-0.1713,-0.1711,-0.1719,-0.1718,-0.1739,-0.1754,-0.1761,-0.1691,-0.1691,-0.1691,-0.1692,0,0,-0.1072,-0.1165,-0.1175,-0.1207,-0.1278,-0.1318,-0.1367,-0.1428,-0.1456,-0.1507,-0.155,-0.1624,-0.1632,-0.167,-0.1698,-0.1728,-0.1759,-0.1733,-0.1735,-0.1736,-0.1822,-0.1816,-0.1822,-0.1772,-0.1773,-0.1774,-0.1817,0,-0.1107,-0.1195,-0.1233,-0.1304,-0.1351,-0.1383,-0.1426,-0.1475,-0.1509,-0.1555,-0.1594,-0.1646,-0.1652,-0.1675,-0.1706,-0.1749,-0.1777,-0.1746,-0.1813,-0.1815,-0.1797,-0.183,-0.1823,-0.1861,-0.1823,-0.1824,-0.1825,0,-0.116,-0.1211,-0.1286,-0.1351,-0.1373,-0.141,-0.1469,-0.1512,-0.1568,-0.1592,-0.1633,-0.166,-0.1714,-0.1709,-0.1785,-0.1763,-0.1793,-0.1818,-0.182,-0.1828,-0.1821,-0.1839,-0.1874,-0.188,-0.1835,-0.1834,-0.1834,0,-0.116,-0.1247,-0.1304,-0.1331,-0.1408,-0.1434,-0.1468,-0.1523,-0.1557,-0.161,-0.1633,-0.1691,-0.1722,-0.1767,-0.181,-0.1802,-0.1881,-0.188,-0.1903,-0.1902,-0.1918,-0.1916,-0.1959,-0.1937,-0.1937,-0.1936,-0.1936,0,-0.1196,-0.1241,-0.1305,-0.134,-0.1391,-0.1435,-0.1485,-0.1522,-0.157,-0.1613,-0.1645,-0.1685,-0.1739,-0.1786,-0.1819,-0.1877,-0.1891,-0.1912,-0.1921,-0.1909,-0.1907,-0.193,-0.1928,-0.1938,-0.1938,-0.1937,-0.1937,0,-0.1205,-0.1249,-0.1313,-0.1381,-0.1399,-0.1434,-0.1493,-0.1529,-0.1565,-0.1619,-0.1634,-0.1692,-0.1749,-0.1795,-0.187,-0.1893,-0.1953,-0.1963,-0.1934,-0.1939,-0.1959,-0.1957,-0.2018,-0.2028,-0.1999,-0.1999,-0.1999,0,-0.1225,-0.126,-0.1332,-0.1362,-0.1395,-0.1444,-0.148,-0.1525,-0.156,-0.1627,-0.1654,-0.1714,-0.1763,-0.1853,-0.1902,-0.196,-0.1972,-0.1989,-0.1981,-0.1968,-0.1972,-0.197,-0.1974,-0.199,-0.199,-0.199,-0.199,0,-0.1256,-0.1276,-0.1325,-0.1382,-0.1422,-0.147,-0.1518,-0.1541,-0.1595,-0.1634,-0.1692,-0.1731,-0.1807,-0.1866,-0.1929,-0.1965,-0.1987,-0.1992,-0.2001,-0.199,-0.1972,-0.1982,-0.1937,-0.1991,-0.1991,-0.1991,-0.1991,-0.1991,-0.1271,-0.1304,-0.1359,-0.1413,-0.1454,-0.1498,-0.1535,-0.1575,-0.1625,-0.169,-0.1714,-0.1773,-0.183,-0.1916,-0.1953,-0.2001,-0.2003,-0.2016,-0.2019,-0.2021,-0.202,-0.1964,-0.2013,-0.2013,-0.2013,-0.2013,-0.2013,0,-0.1304,-0.1341,-0.139,-0.1456,-0.1498,-0.1514,-0.1568,-0.1603,-0.1655,-0.1705,-0.1753,-0.1821,-0.1878,-0.1932,-0.1992,-0.202,-0.2032,-0.2035,-0.2033,-0.2041,-0.2014,-0.2001,-0.2024,-0.2024,-0.2024,-0.2024,-0.2024,-0.2024,-0.1325,-0.1382,-0.1409,-0.1487,-0.1524,-0.1583,-0.1612,-0.1654,-0.1694,-0.1767,-0.1815,-0.1849,-0.1901,-0.1965,-0.2019,-0.2033,-0.2054,-0.2054,-0.2071,-0.2045,-0.2043,-0.2041,-0.2029,-0.2058,-0.2058,-0.2094,-0.2095,-0.2095]}]]